Вернуться в каталог

STARLINK-30307

АктивенСвязьVLEO
NORAD 57747·PAYLOAD·🇺🇸 United States

Запущен Sep 1, 2023 с Cape Canaveral Space Force Station

Loading…

Ближайшие Пролёты (ближайшие 24 часа)

TLE

СвежийSource: CelesTrak SupGP

Эпоха: Sep 15, 2026, 02:06 UTC

1 57747C 23131R   26258.08798611 -.00021115  00000+0 -76490-3 0  2581
2 57747  43.0031 183.0064 0001223 269.3598 336.2262 15.27584770    16

Отслеживайте STARLINK-30307 в реальном времени с AllMySat

Download on the App Store